Helicity
139 141 160 139 138 153 247 269 313 170 105 114 53 70 52 55 42 16 15 27 -49 -16 -22 -15 4 12 30 32 29 46 27 55 66 125 164 199 172 158 168 130 160 187 186 200
156 287 208 110 108 176 185 240 306 263 234 65 72 -13 11 36 14 30 14 -1 25 -14 -14 -18 -2 9 25 33 40 56 47 53 47 109 146 174 207 154 175 171 172 181 183 199
167 286 192 164 243 194 175 208 331 270 182 162 126 103 68 69 39 26 30 19 18 -13 -15 -19 -10 -3 16 31 38 48 55 37 50 61 123 153 159 213 198 198 181 162 187 192
225 155 308 344 205 206 202 131 169 230 289 248 171 114 72 27 52 33 3 26 17 -15 -12 -8 -8 -4 9 17 24 40 56 28 31 40 82 104 139 188 215 214 198 165 176 180
329 244 195 149 243 209 196 84 128 209 250 216 180 100 56 32 -27 -2 17 8 11 -3 -16 -11 -5 -3 6 16 22 28 42 48 36 41 50 72 108 135 186 199 207 207 160 183
251 337 338 350 320 173 123 179 278 192 191 161 187 220 106 17 48 25 -8 2 7 3 3 -8 -3 0 1 8 23 31 28 58 56 33 63 54 52 87 105 145 174 177 199 188
287 415 314 210 345 160 199 270 167 137 137 134 199 197 125 47 24 11 21 14 8 8 5 -7 -3 1 -1 -2 10 30 43 29 37 48 66 72 44 42 74 97 136 135 183 183
303 388 334 407 363 243 175 103 88 86 98 127 125 133 114 88 83 62 38 23 12 3 1 7 14 2 -1 4 2 10 38 25 24 27 30 70 66 49 51 51 97 151 167 170
307 299 389 394 219 205 105 72 66 67 71 100 103 99 95 111 109 99 74 40 16 5 -3 -4 -7 2 3 8 8 14 24 26 22 22 25 38 69 52 29 44 50 69 98 134
281 207 154 273 259 123 131 80 62 69 74 86 79 88 88 99 100 107 98 82 49 18 2 -6 -6 -15 15 14 13 15 17 16 15 17 35 38 30 38 20 15 33 26 39 59
261 141 147 182 128 188 149 119 78 80 73 69 69 72 75 79 80 86 92 88 84 65 37 5 -11 -18 -25 7 26 32 28 21 23 22 32 31 45 16 12 -14 -12 -20 -12 -1
235 203 236 207 172 196 174 138 103 83 75 67 62 63 62 62 59 60 64 75 82 73 58 41 17 0 -23 -29 -14 26 27 29 26 29 31 30 38 36 -32 -36 -80 -84 -55 -15
183 185 195 220 200 198 176 150 128 89 74 64 50 53 56 47 46 47 47 57 56 55 50 48 40 25 -2 -6 -2 -11 -4 12 11 13 29 36 37 33 30 5 -39 9 13 11
135 227 233 232 218 180 163 170 153 85 75 68 49 46 50 36 39 29 25 19 22 30 37 37 39 32 22 16 18 12 21 16 -1 6 11 10 7 15 17 18 20 23 28 35
174 213 198 207 176 191 168 172 151 108 81 65 64 48 45 33 37 26 13 3 8 14 18 22 27 31 26 21 11 2 18 15 43 42 -8 -27 -14 -4 1 3 9 5 3 11
171 203 206 220 217 212 181 176 151 116 101 76 64 64 50 36 33 31 17 2 -6 -4 -4 2 3 9 16 14 20 29 41 60 63 38 32 34 15 -27 -27 -23 -20 -19 -11 0
177 199 195 211 220 207 193 165 143 127 116 95 71 69 57 46 36 34 26 11 1 -8 -14 -14 -11 -10 -6 -3 12 17 22 27 53 24 25 20 -2 4 20 15 10 10 11 13
105 123 178 162 205 202 197 185 154 146 142 109 87 82 66 57 43 46 31 15 4 1 -10 -14 -20 -12 -7 -15 -1 15 22 27 32 41 45 41 41 44 47 65 60 42 39 39
91 97 148 186 198 219 204 208 187 166 153 127 120 101 72 61 51 45 38 26 15 7 18 -2 2 7 -2 9 -2 14 26 33 40 56 67 58 75 78 95 105 91 91 83 67
102 99 123 179 217 245 241 236 237 203 168 147 133 184 122 109 98 87 45 36 18 13 23 16 -3 3 7 21 16 16 26 36 50 65 83 85 98 109 118 123 116 106 95 86
152 161 143 169 228 255 276 285 301 256 208 187 153 159 149 111 107 88 66 44 32 44 28 36 13 15 16 16 11 26 33 42 53 70 88 102 119 130 145 152 142 134 116 95
157 218 220 216 238 259 279 293 342 313 285 223 223 199 162 129 118 94 50 46 49 118 44 31 31 72 35 17 19 33 41 46 58 74 99 123 134 153 158 162 166 154 133 110
172 186 224 269 317 336 300 286 369 361 359 303 299 287 165 117 108 114 101 66 64 93 57 39 101 100 52 36 34 47 51 58 66 77 93 121 144 162 167 171 170 154 137 134
172 225 287 290 338 394 423 373 361 374 366 315 288 244 232 137 104 90 65 67 98 134 84 82 115 100 71 48 49 59 61 65 72 80 95 113 139 155 168 179 165 156 152 148
203 218 279 325 410 418 385 423 399 388 393 407 336 287 240 154 105 98 90 110 153 134 95 94 113 101 78 65 62 68 71 71 76 93 102 108 134 157 169 180 170 158 167 169
172 251 321 345 392 383 451 576 531 463 499 516 479 409 314 280 151 92 115 113 115 98 97 109 120 100 84 75 73 72 74 75 81 91 107 117 139 161 178 178 168 160 163 175
195 265 310 331 370 420 496 600 599 528 492 549 540 503 387 343 297 181 113 149 153 132 117 127 110 94 89 82 81 78 77 80 85 95 112 127 141 170 189 186 172 160 166 188
Wind_Speed
40 37 38 44 42 42 39 36 44 41 40 32 26 19 15 12 19 21 23 45 64 74 66 65 65 65 64 63 64 64 65 64 62 63 62 62 62 62 63 62 62 63 63 61
45 44 42 42 38 37 35 36 34 35 36 29 27 24 23 17 16 19 22 29 42 67 63 63 64 62 62 62 62 62 62 62 60 61 60 59 59 59 60 59 59 57 57 57
53 47 46 49 40 40 39 32 36 42 36 31 31 30 23 17 15 17 19 26 25 40 61 61 61 58 58 59 59 58 59 59 58 58 57 58 56 57 56 56 55 53 53 53
48 49 61 46 39 38 37 32 31 30 38 35 33 25 22 21 20 23 23 22 25 11 62 62 58 56 56 55 54 54 56 57 56 55 55 54 54 54 54 53 52 49 50 50
52 53 39 36 37 39 41 38 31 32 36 33 30 29 27 29 29 23 21 24 24 23 32 57 55 54 53 52 52 52 54 55 54 54 53 50 51 50 50 50 49 48 46 47
47 58 62 47 37 37 37 45 41 35 37 37 37 45 37 30 27 25 25 21 20 19 17 52 52 52 51 50 50 51 51 52 53 52 51 49 47 47 48 47 46 46 47 48
38 45 41 30 32 34 50 51 36 33 33 34 39 34 27 28 30 28 25 22 19 19 22 31 50 51 50 51 51 51 51 51 52 52 51 49 46 45 46 46 45 44 46 47
43 48 53 32 33 37 35 32 31 31 31 32 30 31 30 31 31 30 29 25 24 18 20 25 51 50 50 51 53 54 52 51 51 52 50 49 47 46 45 46 46 48 49 49
33 40 36 19 18 21 19 25 27 29 29 31 31 32 35 35 33 32 31 30 27 24 19 19 24 52 53 54 56 57 56 52 51 50 49 49 48 46 46 48 49 50 52 54
37 35 25 12 11 9 17 19 22 25 27 29 32 33 35 36 33 32 34 34 31 26 25 20 14 10 54 56 57 56 55 54 51 49 49 49 48 46 46 47 50 51 55 57
23 22 21 19 14 9 13 18 21 23 26 28 30 32 34 35 35 36 34 34 36 34 29 23 19 17 15 37 55 54 54 52 50 50 49 49 50 48 47 44 46 49 54 56
40 37 26 35 23 16 15 17 19 22 25 27 29 31 34 35 36 38 37 38 37 36 36 34 29 25 25 23 13 51 52 51 48 50 51 50 51 51 45 44 44 50 51 52
23 29 26 30 27 22 17 17 20 21 23 25 27 30 32 34 37 36 39 40 40 39 41 41 41 40 38 31 24 27 17 50 50 48 51 52 54 53 54 52 53 56 56 57
13 23 24 24 25 19 17 16 20 18 21 23 26 27 30 31 34 37 40 42 41 41 44 45 46 50 47 43 41 44 37 37 46 49 51 52 53 55 55 57 60 61 60 62
13 13 21 22 17 20 15 14 14 16 16 18 22 23 26 28 31 34 37 39 40 43 44 45 46 49 49 48 49 52 50 51 43 43 51 54 53 54 55 58 61 63 65 65
14 13 12 18 18 15 15 12 10 10 13 14 17 19 21 23 26 29 32 35 38 41 43 44 46 47 48 48 47 50 50 53 44 49 52 53 55 59 59 60 61 63 65 67
23 18 13 13 13 12 11 10 8 7 10 10 11 14 16 18 20 23 26 29 32 35 38 41 42 43 46 49 45 49 50 53 51 57 59 61 62 63 64 64 65 66 66 67
17 18 15 14 13 12 11 10 9 7 6 8 8 8 9 10 12 16 19 22 25 27 31 35 39 37 42 47 42 45 47 50 53 55 57 61 63 65 67 67 69 71 71 72
21 21 19 17 14 13 12 11 11 8 6 6 5 3 3 4 6 10 13 15 18 19 23 28 32 30 36 42 42 41 45 47 49 51 54 57 59 63 65 67 70 70 72 74
28 24 22 21 16 14 14 12 12 9 6 6 6 5 4 2 2 5 6 7 9 15 20 23 26 29 32 36 38 38 42 44 46 49 52 52 57 61 62 65 67 67 69 72
32 29 26 22 20 17 17 14 12 11 8 7 8 9 9 7 7 6 4 2 2 6 11 18 20 25 29 34 33 37 39 42 44 46 49 52 54 55 59 62 63 64 66 68
39 36 29 26 25 23 20 18 15 13 12 11 11 11 11 13 12 13 14 7 2 3 6 9 13 21 27 32 28 34 37 40 42 44 46 49 51 54 56 58 60 61 62 63
47 43 37 33 31 28 23 23 21 18 17 14 15 15 17 17 17 18 19 18 12 5 4 6 13 17 23 26 26 31 34 37 40 42 45 47 50 51 54 56 59 59 60 62
54 48 42 37 32 29 30 28 25 24 22 19 18 18 18 19 20 21 18 16 18 13 10 10 12 16 20 24 26 29 32 36 39 41 45 49 49 51 53 55 57 57 58 60
57 51 44 39 37 37 35 30 28 28 27 25 21 21 21 21 22 20 21 19 17 18 17 15 15 17 20 23 25 28 32 35 38 42 45 48 51 52 52 54 54 56 57 58
59 53 47 42 40 40 38 33 36 33 30 31 27 24 25 24 22 22 22 24 22 22 21 18 17 18 19 21 25 27 31 34 38 40 44 49 51 52 52 54 53 55 55 58
63 58 53 50 44 42 40 38 39 38 36 35 34 28 26 26 25 24 24 25 26 24 24 23 20 19 21 24 25 27 30 33 36 40 46 50 51 52 53 52 52 53 54 56
Wind_Direction
23 21 25 22 24 32 32 30 28 18 15 6 2 356 343 4 357 347 356 3 301 309 301 299 300 304 303 302 305 306 309 306 301 296 297 297 298 297 294 291 289 285 282 282
20 36 27 22 27 29 27 27 24 18 13 29 7 5 7 353 347 356 5 3 6 308 301 299 298 299 301 303 306 307 312 308 306 301 296 298 299 300 296 293 291 289 287 284
28 29 25 27 35 33 31 33 31 24 18 12 15 15 15 15 10 22 12 6 11 300 303 300 298 298 301 300 304 307 313 313 308 305 300 298 300 301 300 295 294 293 291 289
21 24 29 37 42 39 32 30 30 26 28 35 29 26 21 35 43 22 12 14 20 349 307 304 304 302 301 301 304 308 313 315 309 307 303 301 301 301 303 300 298 296 295 294
28 22 13 26 38 34 28 24 32 35 37 33 32 27 34 51 27 18 18 26 27 28 284 308 308 309 304 306 308 309 310 311 308 308 304 303 302 304 306 304 302 300 299 299
25 25 27 34 43 41 38 32 51 44 36 32 33 29 31 25 25 24 26 30 30 33 45 311 310 312 310 309 310 310 312 307 307 309 305 303 304 303 307 310 308 305 301 302
21 21 22 33 50 49 34 35 40 38 35 31 31 30 23 25 25 27 31 31 37 45 51 313 315 316 314 310 311 306 304 309 313 312 306 305 307 306 306 308 309 311 307 306
29 24 23 55 53 36 39 37 35 34 33 31 31 31 28 26 29 31 31 36 43 50 54 53 325 317 308 311 314 314 304 309 314 317 313 307 308 309 307 308 307 307 306 305
31 24 35 50 35 44 37 31 33 33 34 35 34 32 30 32 33 35 39 41 46 50 58 63 52 316 310 309 314 314 311 308 312 316 319 319 312 309 312 310 308 308 307 305
19 29 18 16 30 31 37 35 38 39 41 41 36 35 34 35 39 43 44 45 48 52 56 62 71 80 314 318 316 312 312 317 311 317 316 321 326 320 319 314 312 310 308 305
357 349 2 16 27 48 45 46 42 47 45 42 41 39 38 40 44 47 50 51 53 54 59 62 66 70 73 337 322 317 315 317 325 323 317 321 321 327 323 330 328 320 313 309
17 23 26 24 38 63 57 48 52 48 44 45 44 42 42 45 48 49 53 56 60 59 59 60 64 68 67 67 85 323 325 322 323 322 325 326 318 320 332 336 335 331 329 323
18 24 29 31 43 54 54 57 53 50 47 45 45 45 48 48 50 55 55 58 61 64 62 62 62 63 63 68 74 68 81 332 328 330 327 327 324 322 318 321 322 327 325 326
23 25 22 32 32 43 50 56 48 46 48 47 46 49 50 52 54 56 57 58 63 66 66 65 64 60 61 65 67 64 69 63 9 338 336 334 329 327 326 321 317 318 321 322
18 23 20 25 32 36 48 52 48 42 46 45 46 48 51 54 57 58 60 60 62 64 66 66 66 63 61 62 62 59 62 59 67 62 22 351 344 338 333 329 324 320 319 320
9 10 9 11 18 27 31 36 37 37 38 40 41 47 54 58 61 62 63 62 61 60 62 65 64 63 61 60 62 58 57 54 62 52 44 40 25 357 347 340 335 331 328 325
2 355 354 348 356 5 8 15 18 24 28 31 38 45 53 62 65 67 67 66 63 61 60 58 61 60 57 54 59 54 51 45 47 32 26 18 7 360 358 353 346 342 338 336
343 347 346 342 345 348 349 355 359 4 11 19 30 49 55 70 76 73 71 67 64 62 56 52 50 56 52 47 54 50 47 43 37 32 27 16 12 5 358 358 352 344 339 337
343 341 342 338 336 337 339 338 342 347 355 1 5 10 54 79 87 85 77 67 62 64 58 50 46 54 46 40 42 45 41 38 35 31 26 20 17 12 9 5 358 354 349 342
339 335 331 332 328 327 329 335 340 336 332 331 330 321 259 286 52 62 79 72 75 52 46 41 39 39 38 34 35 37 33 31 29 25 22 21 16 12 9 6 2 360 355 350
330 326 320 317 316 314 314 320 320 317 313 301 283 279 258 251 232 222 223 230 108 61 46 32 34 28 27 23 27 26 24 23 21 20 17 14 13 11 8 5 3 1 357 352
326 320 309 305 305 302 303 300 295 295 298 290 289 286 272 251 240 234 222 230 338 34 19 22 24 19 14 12 20 16 16 16 15 14 13 11 9 7 5 3 1 359 355 353
321 316 306 300 293 290 295 294 286 279 283 291 279 273 267 257 242 241 243 225 234 267 288 334 354 359 1 4 8 8 8 8 8 9 7 6 4 3 1 359 358 356 354 352
317 312 303 299 296 290 287 292 283 275 274 278 281 269 272 268 256 242 245 245 222 242 256 302 322 333 343 350 354 357 360 1 2 3 2 0 0 359 357 356 355 354 352 351
312 311 306 299 290 284 283 286 287 281 272 271 283 275 269 267 265 255 241 242 244 245 256 270 291 308 325 334 341 346 351 354 356 357 357 357 356 355 355 354 354 353 352 351
310 307 304 294 289 290 287 281 284 281 274 272 275 280 276 272 267 258 250 242 245 247 253 270 279 293 307 320 329 336 342 346 350 352 353 352 353 353 353 353 353 353 352 352
308 306 303 300 293 290 285 279 280 278 270 268 267 269 270 270 266 260 254 249 244 247 253 262 271 280 297 311 320 328 335 341 345 348 349 350 351 351 351 352 352 352 352 352